Spokane Fairchild, WA
on Sunday, December 30, 2012

Sunday
Previous Day Next Day
Daily Summary
 ActualAverage (KGEG)Record (KGEG)
Temperature
Mean Temperature °F / °C 27°F / -3°C  
Max Temperature 23°F / -5°C 32°F / 0°C 51°F / 10°C (1920)
Min Temperature 18°F / -8°C 22°F / -6°C -25°F / -31°C (1968)
Degree Days
Heating Degree Days 44 38  
Month to date heating degree days 1129  
Since 1 July heating degree days 2796  
Cooling Degree Days 0 0  
Month to date cooling degree days 0  
Year to date cooling degree days 450  
Moisture
Dew Point 22°F / -6°C   
Average Humidity 100    
Maximum Humidity 100    
Minimum Humidity 99    
Precipitation
Precipitation 0.00 in / 0.00 cm 0.07 in / 1.78 cm 0.85 in / 2.16 cm (1896)
Month to date precipitation 2.24  
Year to date precipitation 16.50  
Snow
Snow 0.00 in / 0.00 cm 0.50 in / 1.27 cm 5.40 in / 13.72 cm (1990)
Month to date snowfall 14.1  
Since 1 July snowfall 21.6  
Snow Depth in / cm   
Wind
Wind Speed 2 mph / 3 km/h   
Max Wind Speed 10 mph / 16 km/h   
Max Gust Speed mph / km/h   
Visibility 6 miles / 10 kilometers   
Events Fog , Rain , Snow   

Key: T is trace of precipitation, MM is missing value
Source: NWS Daily Summary
Time(PST)TemperatureDew PointHumidity Pressure Visibility Wind DirectionWind SpeedGust SpeedPrecipitationEvents Conditions
12:03 AM 19.4°F / -7.0°C 19.4°F / -7.0°C 100% 30.13 in / 1020.2 hPa 1.2 miles / 2.0 kilometers Calm Calm - N/A   Overcast
12:08 AM 19.4°F / -7.0°C 19.4°F / -7.0°C 100% 30.13 in / 1020.2 hPa 1.0 miles / 1.6 kilometers Calm Calm - N/A   Overcast
12:13 AM 19.4°F / -7.0°C 19.4°F / -7.0°C 100% 30.13 in / 1020.2 hPa 1.2 miles / 2.0 kilometers Calm Calm - N/A   Overcast
12:18 AM 19.4°F / -7.0°C 19.4°F / -7.0°C 100% 30.13 in / 1020.2 hPa 1.8 miles / 2.8 kilometers Calm Calm - N/A   Overcast
12:23 AM 19.4°F / -7.0°C 19.4°F / -7.0°C 100% 30.13 in / 1020.2 hPa 2.0 miles / 3.2 kilometers Calm Calm - N/A   Overcast
12:28 AM 19.4°F / -7.0°C 19.4°F / -7.0°C 100% 30.13 in / 1020.2 hPa 1.8 miles / 2.8 kilometers Calm Calm - N/A   Overcast
12:33 AM 19.4°F / -7.0°C 19.4°F / -7.0°C 100% 30.13 in / 1020.2 hPa 0.8 miles / 1.2 kilometers Calm Calm - N/A   Mist
12:38 AM 19.4°F / -7.0°C 19.4°F / -7.0°C 100% 30.13 in / 1020.2 hPa 0.5 miles / 0.8 kilometers Calm Calm - N/A Fog Light Freezing Fog
12:43 AM 19.4°F / -7.0°C 19.4°F / -7.0°C 100% 30.13 in / 1020.2 hPa 0.5 miles / 0.8 kilometers Calm Calm - N/A Fog Light Freezing Fog
12:48 AM 19.4°F / -7.0°C 19.4°F / -7.0°C 100% 30.13 in / 1020.2 hPa 0.2 miles / 0.4 kilometers Calm Calm - N/A Fog Light Freezing Fog
12:53 AM 19.4°F / -7.0°C 19.4°F / -7.0°C 100% 30.13 in / 1020.2 hPa 0.2 miles / 0.4 kilometers Calm Calm - N/A Fog Light Freezing Fog
12:58 AM 19.0°F / -7.2°C 19.0°F / -7.2°C 100% 30.25 in / 1024.1 hPa 0.2 miles / 0.4 kilometers Calm Calm - N/A Fog Light Freezing Fog
1:19 AM 19.4°F / -7.0°C 19.4°F / -7.0°C 100% 30.14 in / 1020.5 hPa 0.2 miles / 0.4 kilometers Calm Calm - N/A Fog , Snow Light Freezing Fog
1:28 AM 19.4°F / -7.0°C 19.4°F / -7.0°C 100% 30.14 in / 1020.5 hPa 0.2 miles / 0.4 kilometers Calm Calm - N/A Fog Light Freezing Fog
1:29 AM 19.4°F / -7.0°C 19.4°F / -7.0°C 100% 30.14 in / 1020.5 hPa 0.2 miles / 0.4 kilometers Calm Calm - N/A Fog Light Freezing Drizzle
1:34 AM 19.4°F / -7.0°C 19.4°F / -7.0°C 100% 30.15 in / 1020.9 hPa 0.2 miles / 0.4 kilometers Calm Calm - N/A Fog Light Freezing Drizzle
1:44 AM 19.4°F / -7.0°C 19.4°F / -7.0°C 100% 30.15 in / 1020.9 hPa 0.2 miles / 0.4 kilometers Calm Calm - N/A Fog Light Freezing Drizzle
1:49 AM 19.4°F / -7.0°C 19.4°F / -7.0°C 100% 30.15 in / 1020.9 hPa 0.5 miles / 0.8 kilometers Calm Calm - N/A Fog Light Freezing Drizzle
1:58 AM 19.4°F / -7.0°C 19.4°F / -7.0°C 100% 30.27 in / 1025.1 hPa 0.5 miles / 0.8 kilometers Calm Calm - 0.00 in / 0.0 cm Fog Light Freezing Drizzle
1:59 AM 19.4°F / -7.0°C 19.4°F / -7.0°C 100% 30.16 in / 1021.2 hPa 0.5 miles / 0.8 kilometers Calm Calm - N/A Fog Light Freezing Fog
2:09 AM 19.4°F / -7.0°C 19.4°F / -7.0°C 100% 30.16 in / 1021.2 hPa 0.8 miles / 1.2 kilometers Calm Calm - N/A   Overcast
2:14 AM 19.4°F / -7.0°C 19.4°F / -7.0°C 100% 30.17 in / 1021.6 hPa 1.0 miles / 1.6 kilometers Calm Calm - N/A   Overcast
2:19 AM 19.4°F / -7.0°C 19.4°F / -7.0°C 100% 30.17 in / 1021.6 hPa 1.5 miles / 2.4 kilometers Calm Calm - N/A   Overcast
2:24 AM 19.4°F / -7.0°C 19.4°F / -7.0°C 100% 30.17 in / 1021.6 hPa 2.0 miles / 3.2 kilometers Calm Calm - N/A   Overcast
2:29 AM 19.4°F / -7.0°C 19.4°F / -7.0°C 100% 30.17 in / 1021.6 hPa 5.0 miles / 8.0 kilometers Calm Calm - N/A   Overcast
2:45 AM 19.4°F / -7.0°C 19.4°F / -7.0°C 100% 30.17 in / 1021.6 hPa 8.0 miles / 12.9 kilometers Calm Calm - N/A Snow Light Snow
2:58 AM 18.9°F / -7.3°C 18.9°F / -7.3°C 100% 30.29 in / 1025.5 hPa 10.0 miles / 16.1 kilometers Calm Calm - 0.00 in / 0.0 cm Snow Light Snow
3:05 AM 19.4°F / -7.0°C 19.4°F / -7.0°C 100% 30.17 in / 1021.6 hPa 10.0 miles / 16.1 kilometers Calm Calm - N/A   Overcast
3:06 AM 19.4°F / -7.0°C 19.4°F / -7.0°C 100% 30.17 in / 1021.6 hPa 10.0 miles / 16.1 kilometers Calm Calm - N/A   Light Freezing Drizzle
3:35 AM 19.4°F / -7.0°C 19.4°F / -7.0°C 100% 30.17 in / 1021.6 hPa 10.0 miles / 16.1 kilometers Calm Calm - N/A   Overcast
3:58 AM 19.8°F / -6.8°C 19.8°F / -6.8°C 100% 30.29 in / 1025.5 hPa 10.0 miles / 16.1 kilometers Calm Calm - 0.00 in / 0.0 cm   Overcast
4:47 AM 19.4°F / -7.0°C 19.4°F / -7.0°C 100% 30.17 in / 1021.6 hPa 10.0 miles / 16.1 kilometers Calm Calm - N/A Snow Light Snow
4:58 AM 20.1°F / -6.6°C 20.1°F / -6.6°C 100% 30.29 in / 1025.5 hPa 10.0 miles / 16.1 kilometers Calm Calm - 0.00 in / 0.0 cm Snow Light Snow
5:08 AM 19.4°F / -7.0°C 19.4°F / -7.0°C 100% 30.18 in / 1021.9 hPa 10.0 miles / 16.1 kilometers Calm Calm - N/A   Overcast
5:09 AM 19.4°F / -7.0°C 19.4°F / -7.0°C 100% 30.18 in / 1021.9 hPa 10.0 miles / 16.1 kilometers Calm Calm - N/A   Light Freezing Drizzle
5:38 AM 19.4°F / -7.0°C 19.4°F / -7.0°C 100% 30.18 in / 1021.9 hPa 10.0 miles / 16.1 kilometers Calm Calm - N/A   Overcast
5:58 AM 20.1°F / -6.6°C 20.1°F / -6.6°C 100% 30.30 in / 1025.8 hPa 10.0 miles / 16.1 kilometers Calm Calm - 0.00 in / 0.0 cm   Overcast
6:24 AM 19.4°F / -7.0°C 19.4°F / -7.0°C 100% 30.18 in / 1021.9 hPa 10.0 miles / 16.1 kilometers Calm Calm - N/A Snow Light Snow
6:46 AM 19.4°F / -7.0°C 19.4°F / -7.0°C 100% 30.19 in / 1022.2 hPa 10.0 miles / 16.1 kilometers Calm Calm - N/A   Overcast
6:47 AM 19.4°F / -7.0°C 19.4°F / -7.0°C 100% 30.19 in / 1022.2 hPa 10.0 miles / 16.1 kilometers Calm Calm - N/A   Light Freezing Drizzle
6:58 AM 19.9°F / -6.7°C 19.9°F / -6.7°C 100% 30.31 in / 1026.2 hPa 10.0 miles / 16.1 kilometers Calm Calm - 0.00 in / 0.0 cm   Light Freezing Drizzle
7:16 AM 19.4°F / -7.0°C 19.4°F / -7.0°C 100% 30.19 in / 1022.2 hPa 10.0 miles / 16.1 kilometers Calm Calm - N/A   Overcast
7:46 AM 19.4°F / -7.0°C 19.4°F / -7.0°C 100% 30.19 in / 1022.2 hPa 10.0 miles / 16.1 kilometers Calm Calm - N/A Snow Light Snow
7:58 AM 20.1°F / -6.6°C 20.1°F / -6.6°C 100% 30.31 in / 1026.4 hPa 10.0 miles / 16.1 kilometers Calm Calm - 0.00 in / 0.0 cm Snow Light Snow
8:10 AM 19.4°F / -7.0°C 19.4°F / -7.0°C 100% 30.20 in / 1022.6 hPa 10.0 miles / 16.1 kilometers Calm Calm - N/A   Overcast
8:11 AM 19.4°F / -7.0°C 19.4°F / -7.0°C 100% 30.20 in / 1022.6 hPa 10.0 miles / 16.1 kilometers Calm Calm - N/A   Light Freezing Drizzle
8:40 AM 19.4°F / -7.0°C 19.4°F / -7.0°C 100% 30.21 in / 1022.9 hPa 10.0 miles / 16.1 kilometers Calm Calm - N/A   Overcast
8:44 AM 19.4°F / -7.0°C 19.4°F / -7.0°C 100% 30.21 in / 1022.9 hPa 10.0 miles / 16.1 kilometers Calm Calm - N/A Snow Light Snow
8:58 AM 20.5°F / -6.4°C 20.5°F / -6.4°C 100% 30.34 in / 1027.4 hPa 10.0 miles / 16.1 kilometers Calm Calm - 0.00 in / 0.0 cm Snow Light Snow
8:59 AM 21.2°F / -6.0°C 21.2°F / -6.0°C 100% 30.22 in / 1023.2 hPa 10.0 miles / 16.1 kilometers Calm Calm - N/A   Overcast
9:00 AM 21.2°F / -6.0°C 21.2°F / -6.0°C 100% 30.22 in / 1023.2 hPa 10.0 miles / 16.1 kilometers Calm Calm - N/A   Light Freezing Drizzle
9:28 AM 21.2°F / -6.0°C 21.2°F / -6.0°C 100% 30.23 in / 1023.6 hPa 10.0 miles / 16.1 kilometers Calm Calm - N/A   Overcast
9:33 AM 21.2°F / -6.0°C 21.2°F / -6.0°C 100% 30.23 in / 1023.6 hPa 10.0 miles / 16.1 kilometers Calm Calm - N/A   Overcast
9:58 AM 21.2°F / -6.0°C 21.2°F / -6.0°C 100% 30.35 in / 1027.7 hPa 10.0 miles / 16.1 kilometers Calm Calm - 0.00 in / 0.0 cm   Overcast
10:05 AM 21.2°F / -6.0°C 21.2°F / -6.0°C 100% 30.23 in / 1023.6 hPa 10.0 miles / 16.1 kilometers Calm Calm - N/A   Overcast
10:07 AM 21.2°F / -6.0°C 21.2°F / -6.0°C 100% 30.23 in / 1023.6 hPa 10.0 miles / 16.1 kilometers Calm Calm - N/A Rain Light Freezing Rain
10:30 AM 21.2°F / -6.0°C 21.2°F / -6.0°C 100% 30.23 in / 1023.6 hPa 10.0 miles / 16.1 kilometers Calm Calm - N/A   Overcast
10:41 AM 21.2°F / -6.0°C 21.2°F / -6.0°C 100% 30.23 in / 1023.6 hPa 10.0 miles / 16.1 kilometers Calm Calm - N/A   Overcast
10:58 AM 22.1°F / -5.5°C 22.1°F / -5.5°C 100% 30.35 in / 1027.7 hPa 10.0 miles / 16.1 kilometers Calm Calm - 0.00 in / 0.0 cm   Overcast
11:02 AM 23.0°F / -5.0°C 23.0°F / -5.0°C 100% 30.23 in / 1023.6 hPa 10.0 miles / 16.1 kilometers Calm Calm - N/A   Overcast
11:12 AM 23.0°F / -5.0°C 23.0°F / -5.0°C 100% 30.23 in / 1023.6 hPa 10.0 miles / 16.1 kilometers SSW 6.9 mph / 11.1 km/h - N/A   Overcast
11:34 AM 23.0°F / -5.0°C 23.0°F / -5.0°C 100% 30.23 in / 1023.6 hPa 10.0 miles / 16.1 kilometers SW 3.5 mph / 5.6 km/h - N/A   Overcast
11:49 AM 23.0°F / -5.0°C 23.0°F / -5.0°C 100% 30.23 in / 1023.6 hPa 10.0 miles / 16.1 kilometers SW 4.6 mph / 7.4 km/h - N/A   Overcast
11:58 AM 22.6°F / -5.2°C 22.6°F / -5.2°C 100% 30.35 in / 1027.5 hPa 10.0 miles / 16.1 kilometers SW 4.6 mph / 7.4 km/h - 0.00 in / 0.0 cm   Overcast
12:03 PM 23.0°F / -5.0°C 23.0°F / -5.0°C 100% 30.23 in / 1023.6 hPa 10.0 miles / 16.1 kilometers SW 3.5 mph / 5.6 km/h - N/A   Overcast
12:23 PM 23.0°F / -5.0°C 23.0°F / -5.0°C 100% 30.22 in / 1023.2 hPa 10.0 miles / 16.1 kilometers SW 5.8 mph / 9.3 km/h - N/A   Overcast
12:32 PM 23.0°F / -5.0°C 23.0°F / -5.0°C 100% 30.22 in / 1023.2 hPa 10.0 miles / 16.1 kilometers SW 5.8 mph / 9.3 km/h - N/A   Overcast
12:42 PM 23.0°F / -5.0°C 23.0°F / -5.0°C 100% 30.23 in / 1023.6 hPa 10.0 miles / 16.1 kilometers WSW 5.8 mph / 9.3 km/h - N/A   Overcast
12:52 PM 23.0°F / -5.0°C 23.0°F / -5.0°C 100% 30.22 in / 1023.2 hPa 10.0 miles / 16.1 kilometers SW 5.8 mph / 9.3 km/h - N/A   Overcast
12:58 PM 23.5°F / -4.7°C 23.5°F / -4.7°C 100% 30.34 in / 1027.2 hPa 10.0 miles / 16.1 kilometers SW 6.9 mph / 11.1 km/h - 0.00 in / 0.0 cm   Overcast
12:59 PM 23.0°F / -5.0°C 23.0°F / -5.0°C 100% 30.22 in / 1023.2 hPa 10.0 miles / 16.1 kilometers SW 5.8 mph / 9.3 km/h - N/A   Overcast
1:12 PM 23.0°F / -5.0°C 23.0°F / -5.0°C 100% 30.22 in / 1023.2 hPa 10.0 miles / 16.1 kilometers SW 5.8 mph / 9.3 km/h - N/A   Overcast
1:13 PM 23.0°F / -5.0°C 23.0°F / -5.0°C 100% 30.22 in / 1023.2 hPa 10.0 miles / 16.1 kilometers SW 5.8 mph / 9.3 km/h - N/A   Overcast
1:18 PM 23.0°F / -5.0°C 23.0°F / -5.0°C 100% 30.22 in / 1023.2 hPa 10.0 miles / 16.1 kilometers SSW 5.8 mph / 9.3 km/h - N/A   Overcast
1:29 PM 23.0°F / -5.0°C 23.0°F / -5.0°C 100% 30.22 in / 1023.2 hPa 10.0 miles / 16.1 kilometers SSW 3.5 mph / 5.6 km/h - N/A   Overcast
1:44 PM 23.0°F / -5.0°C 23.0°F / -5.0°C 100% 30.22 in / 1023.2 hPa 10.0 miles / 16.1 kilometers SW 6.9 mph / 11.1 km/h - N/A   Overcast
1:49 PM 23.0°F / -5.0°C 23.0°F / -5.0°C 100% 30.22 in / 1023.2 hPa 10.0 miles / 16.1 kilometers SW 5.8 mph / 9.3 km/h - N/A   Overcast
1:58 PM 23.9°F / -4.5°C 23.7°F / -4.6°C 99% 30.34 in / 1027.2 hPa 10.0 miles / 16.1 kilometers SSW 3.5 mph / 5.6 km/h - 0.00 in / 0.0 cm   Overcast
2:27 PM 23.0°F / -5.0°C 23.0°F / -5.0°C 100% 30.22 in / 1023.2 hPa 10.0 miles / 16.1 kilometers SW 5.8 mph / 9.3 km/h - N/A   Overcast
2:33 PM 23.0°F / -5.0°C 23.0°F / -5.0°C 100% 30.23 in / 1023.6 hPa 10.0 miles / 16.1 kilometers SW 6.9 mph / 11.1 km/h - N/A   Overcast
2:53 PM 23.0°F / -5.0°C 23.0°F / -5.0°C 100% 30.22 in / 1023.2 hPa 10.0 miles / 16.1 kilometers SW 6.9 mph / 11.1 km/h - N/A   Overcast
2:58 PM 23.5°F / -4.7°C 23.5°F / -4.7°C 100% 30.35 in / 1027.5 hPa 10.0 miles / 16.1 kilometers SSW 8.1 mph / 13.0 km/h - 0.00 in / 0.0 cm   Overcast
3:08 PM 23.0°F / -5.0°C 23.0°F / -5.0°C 100% 30.23 in / 1023.6 hPa 10.0 miles / 16.1 kilometers SW 5.8 mph / 9.3 km/h - N/A   Overcast
3:58 PM 23.0°F / -5.0°C 23.0°F / -5.0°C 100% 30.36 in / 1027.9 hPa 8.0 miles / 12.9 kilometers WSW 10.4 mph / 16.7 km/h - N/A   Overcast
4:15 PM 23.0°F / -5.0°C 23.0°F / -5.0°C 100% 30.24 in / 1023.9 hPa 6.0 miles / 9.7 kilometers WSW 10.4 mph / 16.7 km/h - N/A   Light Freezing Drizzle
4:55 PM 23.0°F / -5.0°C 23.0°F / -5.0°C 100% 30.25 in / 1024.3 hPa 2.0 miles / 3.2 kilometers SW 5.8 mph / 9.3 km/h - N/A   Light Freezing Drizzle
4:58 PM 23.0°F / -5.0°C 23.0°F / -5.0°C 100% 30.37 in / 1028.2 hPa 1.8 miles / 2.8 kilometers SSW 4.6 mph / 7.4 km/h - 0.00 in / 0.0 cm   Light Freezing Drizzle
5:08 PM 23.0°F / -5.0°C 23.0°F / -5.0°C 100% 30.25 in / 1024.3 hPa 1.2 miles / 2.0 kilometers SW 3.5 mph / 5.6 km/h - N/A   Light Freezing Drizzle
5:13 PM 23.0°F / -5.0°C 23.0°F / -5.0°C 100% 30.25 in / 1024.3 hPa 1.0 miles / 1.6 kilometers SW 4.6 mph / 7.4 km/h - N/A   Light Freezing Drizzle
5:18 PM 23.0°F / -5.0°C 23.0°F / -5.0°C 100% 30.25 in / 1024.3 hPa 0.8 miles / 1.2 kilometers SW 5.8 mph / 9.3 km/h - N/A   Light Freezing Drizzle
5:33 PM 23.0°F / -5.0°C 23.0°F / -5.0°C 100% 30.25 in / 1024.3 hPa 1.0 miles / 1.6 kilometers SW 4.6 mph / 7.4 km/h - N/A   Light Freezing Drizzle
5:38 PM 23.0°F / -5.0°C 23.0°F / -5.0°C 100% 30.25 in / 1024.3 hPa 1.5 miles / 2.4 kilometers SW 5.8 mph / 9.3 km/h - N/A   Light Freezing Drizzle
5:43 PM 23.0°F / -5.0°C 23.0°F / -5.0°C 100% 30.25 in / 1024.3 hPa 4.0 miles / 6.4 kilometers WSW 6.9 mph / 11.1 km/h - N/A   Light Freezing Drizzle
5:48 PM 23.0°F / -5.0°C 23.0°F / -5.0°C 100% 30.25 in / 1024.3 hPa 6.0 miles / 9.7 kilometers WSW 6.9 mph / 11.1 km/h - N/A   Overcast
5:58 PM 23.4°F / -4.8°C 23.4°F / -4.8°C 100% 30.37 in / 1028.2 hPa 2.5 miles / 4.0 kilometers WSW 5.8 mph / 9.3 km/h - 0.00 in / 0.0 cm   Overcast
6:03 PM 23.0°F / -5.0°C 23.0°F / -5.0°C 100% 30.25 in / 1024.3 hPa 1.0 miles / 1.6 kilometers WSW 5.8 mph / 9.3 km/h - N/A   Mist
6:07 PM 23.0°F / -5.0°C 23.0°F / -5.0°C 100% 30.25 in / 1024.3 hPa 0.8 miles / 1.2 kilometers WSW 5.8 mph / 9.3 km/h - N/A   Mist
6:10 PM 23.0°F / -5.0°C 23.0°F / -5.0°C 100% 30.25 in / 1024.3 hPa 0.5 miles / 0.8 kilometers WSW 4.6 mph / 7.4 km/h - N/A Fog , Rain Light Freezing Rain
6:25 PM 23.0°F / -5.0°C 23.0°F / -5.0°C 100% 30.25 in / 1024.3 hPa 0.5 miles / 0.8 kilometers SW 3.5 mph / 5.6 km/h - N/A Fog , Rain Light Freezing Rain
6:40 PM 23.0°F / -5.0°C 23.0°F / -5.0°C 100% 30.25 in / 1024.3 hPa 0.5 miles / 0.8 kilometers SSW 2.3 mph / 3.7 km/h - N/A Fog , Rain Light Freezing Rain
6:58 PM 23.7°F / -4.6°C 23.7°F / -4.6°C 100% 30.36 in / 1027.9 hPa 0.5 miles / 0.8 kilometers SW 4.6 mph / 7.4 km/h - 0.00 in / 0.0 cm Fog , Rain Light Freezing Rain
7:13 PM 23.0°F / -5.0°C 23.0°F / -5.0°C 100% 30.25 in / 1024.3 hPa 0.5 miles / 0.8 kilometers SW 4.6 mph / 7.4 km/h - N/A Fog , Rain Light Freezing Rain
7:28 PM 23.0°F / -5.0°C 23.0°F / -5.0°C 100% 30.25 in / 1024.3 hPa 1.0 miles / 1.6 kilometers WSW 5.8 mph / 9.3 km/h - N/A Rain Light Freezing Rain
7:33 PM 23.0°F / -5.0°C 23.0°F / -5.0°C 100% 30.25 in / 1024.3 hPa 1.8 miles / 2.8 kilometers WSW 8.1 mph / 13.0 km/h - N/A Rain Light Freezing Rain
7:35 PM 23.0°F / -5.0°C 23.0°F / -5.0°C 100% 30.25 in / 1024.3 hPa 3.0 miles / 4.8 kilometers WSW 6.9 mph / 11.1 km/h - N/A   Overcast
7:45 PM 23.0°F / -5.0°C 23.0°F / -5.0°C 100% 30.25 in / 1024.3 hPa 5.0 miles / 8.0 kilometers WSW 8.1 mph / 13.0 km/h - N/A   Overcast
7:46 PM 23.0°F / -5.0°C 23.0°F / -5.0°C 100% 30.25 in / 1024.3 hPa 5.0 miles / 8.0 kilometers WSW 6.9 mph / 11.1 km/h - N/A   Overcast
7:48 PM 23.0°F / -5.0°C 23.0°F / -5.0°C 100% 30.25 in / 1024.3 hPa 5.0 miles / 8.0 kilometers WSW 8.1 mph / 13.0 km/h - N/A   Overcast
7:58 PM 23.9°F / -4.5°C 23.9°F / -4.5°C 100% 30.36 in / 1027.9 hPa 4.0 miles / 6.4 kilometers WSW 5.8 mph / 9.3 km/h - 0.00 in / 0.0 cm   Overcast
7:59 PM 23.0°F / -5.0°C 23.0°F / -5.0°C 100% 30.24 in / 1023.9 hPa 4.0 miles / 6.4 kilometers WSW 5.8 mph / 9.3 km/h - N/A   Overcast
8:08 PM 23.0°F / -5.0°C 23.0°F / -5.0°C 100% 30.24 in / 1023.9 hPa 4.0 miles / 6.4 kilometers SW 8.1 mph / 13.0 km/h - N/A   Overcast
8:33 PM 23.0°F / -5.0°C 23.0°F / -5.0°C 100% 30.23 in / 1023.6 hPa 10.0 miles / 16.1 kilometers SW 6.9 mph / 11.1 km/h - N/A   Overcast
8:53 PM 23.0°F / -5.0°C 23.0°F / -5.0°C 100% 30.24 in / 1023.9 hPa 10.0 miles / 16.1 kilometers WSW 3.5 mph / 5.6 km/h - N/A   Overcast
8:58 PM 23.9°F / -4.5°C 23.9°F / -4.5°C 100% 30.35 in / 1027.7 hPa 10.0 miles / 16.1 kilometers WSW 4.6 mph / 7.4 km/h - 0.00 in / 0.0 cm   Overcast
9:38 PM 23.0°F / -5.0°C 23.0°F / -5.0°C 100% 30.24 in / 1023.9 hPa 10.0 miles / 16.1 kilometers SW 5.8 mph / 9.3 km/h - N/A   Overcast
9:43 PM 23.0°F / -5.0°C 23.0°F / -5.0°C 100% 30.24 in / 1023.9 hPa 10.0 miles / 16.1 kilometers SW 5.8 mph / 9.3 km/h - N/A   Overcast
9:58 PM 23.0°F / -5.0°C 23.0°F / -5.0°C 100% 30.35 in / 1027.7 hPa 10.0 miles / 16.1 kilometers SW 5.8 mph / 9.3 km/h - N/A   Overcast
10:03 PM 23.0°F / -5.0°C 23.0°F / -5.0°C 100% 30.25 in / 1024.3 hPa 10.0 miles / 16.1 kilometers SW 6.9 mph / 11.1 km/h - N/A   Overcast
10:08 PM 23.0°F / -5.0°C 23.0°F / -5.0°C 100% 30.25 in / 1024.3 hPa 10.0 miles / 16.1 kilometers SW 5.8 mph / 9.3 km/h - N/A   Overcast
10:33 PM 23.0°F / -5.0°C 23.0°F / -5.0°C 100% 30.26 in / 1024.6 hPa 10.0 miles / 16.1 kilometers SW 6.9 mph / 11.1 km/h - N/A   Overcast
10:58 PM 23.2°F / -4.9°C 23.2°F / -4.9°C 100% 30.37 in / 1028.4 hPa 10.0 miles / 16.1 kilometers SW 6.9 mph / 11.1 km/h - N/A   Overcast
11:33 PM 23.0°F / -5.0°C 23.0°F / -5.0°C 100% 30.26 in / 1024.6 hPa 10.0 miles / 16.1 kilometers WSW 8.1 mph / 13.0 km/h - N/A   Overcast
11:43 PM 23.0°F / -5.0°C 23.0°F / -5.0°C 100% 30.26 in / 1024.6 hPa 10.0 miles / 16.1 kilometers WSW 8.1 mph / 13.0 km/h - N/A   Overcast
11:46 PM 23.0°F / -5.0°C 23.0°F / -5.0°C 100% 30.26 in / 1024.6 hPa 10.0 miles / 16.1 kilometers WSW 9.2 mph / 14.8 km/h - N/A   Overcast
11:58 PM 22.8°F / -5.1°C 22.8°F / -5.1°C 100% 30.36 in / 1028.0 hPa 10.0 miles / 16.1 kilometers WSW 8.1 mph / 13.0 km/h - 0.00 in / 0.0 cm   Overcast
Moon Phase
Dec. 30 Jan. 04 Jan. 11 Jan. 18 Jan. 26
Sunrise:07:38 AM (PST) Moon Rise:06:56 PM (PST)12/30
Sunset:04:08 PM (PST) Moon Set:08:39 AM (PST)12/30

Copyright © 2014 The Weather Underground, Inc.